星链-31442 (STARLINK-31442 )

导读

STARLINK-31442是美国SpaceX星链互联网卫星星座的一员,于2024年5月24日发射入轨,属于星链组网扩容的任务批次。该卫星延续星链星座低轨运行设计,旨在补充全球覆盖容量,为全球偏远、无网络区域以及海事、航空等移动场景提供低延迟高速互联网接入服务。

基本信息
目录编号:
59859
目录名称:
STARLINK-31442
国际标识:
2024-098B
轨道中心:
EARTH
卫星名称:
星链-31442
卫星全名:
星链-31442 (STARLINK-31442 )
卫星状态:
在轨 (已飞行833 天)
发射日期:
2024-05-24 UTC
国别 :
美国 (US)
星等 :
--
轨道信息
数据来源 国际轨道数据 AOE轨道数据
星历时间 2026-09-03T15:08:19+0800
1天前
查看轨道信息
2026-09-02T18:00:00+0800
2天前
查看轨道信息
半长轴 6861.186km 6861.2km
偏心率 0.0000764 0.000087
轨道倾角 43.004° 43.007°
近地点辐角 274.078° 260.481°
升交点赤经 358.862° 3.838°
平近点角 85.998° 290.243°
近地点 482.524km 482.466km
远地点 483.574km 483.66km
周期 94.267分钟 94.267分钟
每日圈数 15.275803 15.275754
详细信息
固有亮度:
5
最大亮度:
1.5
卫星平台:
Starlink v2.0 mini
覆盖范围:
全球
运营商:
太空探索技术公司
运营商所在国:
美国
制造商(研发单位):
太空探索技术公司
制造商所在国:
美国
使用方式:
暂无
卫星简介
星链(Starlink)计划是由太空探索技术公司(SpaceX)提出的一个巨型低轨卫星互联网星座项目,计划在2019年至2024年间在太空搭建由约1.2万颗卫星组成的“星链”网络,其中1584颗将部署在地球上空550千米处的近地轨道,并从2020年开始工作。该卫星仍在工作。
2D轨道图
3D轨道图
轨道高度分析图
轨道倾角分析图
轨道综合分析图
查看轨道综合分析图
交会数据列表
事件ID 空间交会对象 最接近时刻(TCA) 交会距离 交会风险概率(CRP) 交会风险指数(CRI) 操作
CDM_260906-153505-985906-648121
2026-09-06T
15:35:07+0000
0.194 km
中距离
3.800187E-4 高风险 0.87
CDM_260906-131305-985906-648121
2026-09-06T
13:13:54+0000
0.836 km
远距离
1.002493E-5 中风险 0.55
CDM_260906-113905-985906-648121
2026-09-06T
11:39:44+0000
1.043 km
极远距离
4.725261E-6 低风险 0.48
CDM_260906-140005-985906-648121
2026-09-06T
14:00:58+0000
1.579 km
极远距离
1.28478E-6 低风险 0.37
CDM_260906-144805-985906-648121
2026-09-06T
14:48:03+0000
2.523 km
极远距离
4.744018E-7 极低风险 0.29
CDM_260906-100505-985906-648121
2026-09-06T
10:05:35+0000
2.688 km
极远距离
4.362036E-7 极低风险 0.28